Home > Weather > Welland > Past weeks

Flag for Canada Weather for the Past 2 Weeks in Welland, Ontario, Canada

Now
8 °F

Frigid.


Feels Like: -4 °F
Forecast: 7 / 33 °F
Wind: 7 mph from Northeast

Location: Port Colborne Airport

Current Time: Feb 14, 2016 at 7:13:01 PM

Latest Report: Feb 14, 2016 at 6:00 PM


Visibility: N/A

Pressure: 30.49 "Hg

Humidity: 55%

Dew point: -5 °F

Location of WellandLocation

Historic Weather in Welland — Graph

°F

Welland Temperature Yesterday

Maximum temperature yesterday: 14 °F (at 12:00 AM)
Minimum temperature yesterday: -3 °F (at 9:00 AM)
Average temperature yesterday: 3 °F

High & Low Weather Summary for the Past Weeks

 TemperatureHumidityPressure
High48 °F (Jan 31, 5:00 PM)100% (Feb 9, 8:00 AM)30.58 "Hg (Feb 9, 8:00 AM)
Low-4 °F (Feb 14, 5:00 AM)41% (Feb 13, 12:00 PM)29.50 "Hg (Jan 31, 11:00 PM)
Average29 °F72%29.98 "Hg
* Reported Jan 30 5:00 PM — Feb 14 5:00 PM, Welland, Weather by CustomWeather, © 2016

Note: Actual official high and low records may vary slightly from our data, if they occured in-between our weather recording intervals... More about our weather records

Advertising

Welland Weather History for the Previous 24 Hours

 ConditionsComfort  
Time TempWeatherWind HumidityBarometerVisibility
5:00 PM
Sun, Feb 14
9 °FFrigid.3 mph56%30.50 "HgN/A
4:00 PM11 °FCold.1 mph54%30.51 "HgN/A
3:00 PM8 °FFrigid.2 mph57%30.52 "HgN/A
2:00 PM6 °FFrigid.6 mph62%30.53 "HgN/A
1:00 PM4 °FFrigid.8 mph70%30.55 "HgN/A
12:00 PM4 °FFrigid.8 mph73%30.58 "HgN/A
11:00 AM3 °FFrigid.7 mph67%30.58 "HgN/A
10:00 AM2 °FFrigid.7 mph67%30.58 "HgN/A
9:00 AM0 °FFrigid.8 mph63%30.58 "HgN/A
8:00 AM-2 °FFrigid.6 mph67%30.58 "HgN/A
7:00 AM-3 °FFrigid.5 mph68%30.57 "HgN/A
6:00 AM-3 °FFrigid.6 mph68%30.56 "HgN/A
5:00 AM-4 °FFrigid.6 mph74%30.55 "HgN/A
4:00 AM-4 °FFrigid.7 mph77%30.54 "HgN/A
3:00 AM-4 °FFrigid.7 mph76%30.54 "HgN/A
2:00 AM-3 °FFrigid.7 mph83%30.53 "HgN/A
1:00 AM-1 °FFrigid.9 mph72%30.53 "HgN/A
12:00 AM0 °FFrigid.7 mph77%30.51 "HgN/A
11:00 PM
Sat, Feb 13
0 °FFrigid.12 mph72%30.50 "HgN/A
10:00 PM1 °FFrigid.13 mph60%30.48 "HgN/A
9:00 PM2 °FFrigid.13 mph58%30.47 "HgN/A
8:00 PM2 °FFrigid.13 mphN/A30.46 "HgN/A
7:00 PM3 °FFrigid.14 mph52%30.45 "HgN/A
Weather by CustomWeather, © 2016

See weather overviewHow to use our weather pages